Location: Lake of the Woods (North-East)
(49.6672°N, 94.8656°W)
Time: 13:55:41
(UTC-05:00)

ISS - All Passes

Search period start: 27 August 2014 00:00
Search period end: 06 September 2014 00:00
Orbit: 414 x 419 km, 51.6° (Epoch: 27 August)

Date Brightness Start Highest point End Pass type
(mag) Time Alt. Az. Time Alt. Az. Time Alt. Az.
27 Aug - 12:02:51 10° SSE 12:03:59 11° SE 12:05:07 10° ESE daylight
27 Aug - 13:36:52 10° SW 13:40:07 52° SSE 13:43:23 10° ENE daylight
27 Aug - 15:13:33 10° W 15:16:52 63° N 15:20:12 10° ENE daylight
27 Aug - 16:50:28 10° WNW 16:53:49 73° NNE 16:57:09 10° E daylight
27 Aug - 18:27:20 10° W 18:30:26 35° SSW 18:33:31 10° SE daylight
28 Aug - 12:48:45 10° SW 12:51:49 36° SSE 12:54:55 10° E daylight
28 Aug - 14:25:06 10° W 14:28:27 73° NNW 14:31:47 10° ENE daylight
28 Aug - 16:02:04 10° WNW 16:05:23 63° N 16:08:43 10° E daylight
28 Aug - 17:38:52 10° WNW 17:42:08 51° SSW 17:45:23 10° SE daylight
28 Aug - 19:17:10 10° WSW 19:18:16 11° SW 19:19:22 10° SSW daylight
29 Aug - 12:00:49 10° SSW 12:03:35 24° SE 12:06:21 10° E daylight
29 Aug - 13:36:42 10° WSW 13:40:03 89° NNW 13:43:24 10° ENE daylight
29 Aug - 15:13:38 10° W 15:16:57 59° N 15:20:16 10° E daylight
29 Aug - 16:50:28 10° WNW 16:53:48 72° SSW 16:57:07 10° ESE daylight
29 Aug - 18:27:50 10° W 18:30:07 17° SW 18:32:24 10° S daylight
30 Aug - 11:13:11 10° S 11:15:23 17° SE 11:17:34 10° E daylight
30 Aug - 12:48:21 10° WSW 12:51:40 70° SSE 12:55:00 10° ENE daylight
30 Aug - 14:25:12 10° W 14:28:31 59° N 14:31:49 10° ENE daylight
30 Aug - 16:02:04 10° WNW 16:05:25 87° NNE 16:08:46 10° ESE daylight
30 Aug - 17:39:05 10° W 17:41:55 25° SW 17:44:43 10° SSE daylight
31 Aug - 10:26:25 10° SSE 10:27:14 11° SE 10:28:02 10° ESE daylight
31 Aug - 12:00:06 10° SW 12:03:20 49° SSE 12:06:35 10° ENE daylight
31 Aug - 13:36:45 10° W 13:40:04 64° N 13:43:24 10° ENE daylight
31 Aug - 15:13:41 10° WNW 15:17:01 72° NNE 15:20:21 10° E daylight
31 Aug - 16:50:32 10° W 16:53:39 37° SSW 16:56:46 10° SE daylight
01 Sep - 11:12:00 10° SW 11:15:03 34° SSE 11:18:07 10° E daylight
01 Sep - 12:48:19 10° W 12:51:39 75° NNW 12:55:00 10° ENE daylight
01 Sep - 14:25:16 10° WNW 14:28:36 63° N 14:31:55 10° E daylight
01 Sep - 16:02:05 10° WNW 16:05:21 54° SSW 16:08:37 10° SE daylight
01 Sep - 17:40:11 10° WSW 17:41:31 12° SW 17:42:51 10° SSW daylight
02 Sep - 10:24:06 10° SSW 10:26:48 23° SE 10:29:32 10° E daylight
02 Sep - 11:59:55 10° WSW 12:03:15 88° SSE 12:06:36 10° ENE daylight
02 Sep - 13:36:51 10° W 13:40:09 59° N 13:43:28 10° E daylight
02 Sep - 15:13:40 10° WNW 15:17:01 75° SSW 15:20:21 10° ESE daylight
02 Sep - 16:50:59 10° W 16:53:21 18° SW 16:55:43 10° S daylight
03 Sep - 09:36:32 10° S 09:38:37 16° SE 09:40:42 10° E daylight
03 Sep - 11:11:35 10° WSW 11:14:53 67° SSE 11:18:13 10° ENE daylight
03 Sep - 12:48:24 10° W 12:51:43 60° N 12:55:02 10° ENE daylight
03 Sep - 14:25:17 10° WNW 14:28:38 85° NNE 14:31:59 10° ESE daylight
03 Sep - 16:02:16 10° W 16:05:08 27° SW 16:08:00 10° SSE daylight
04 Sep - 08:50:20 10° SE 08:50:28 10° SE 08:50:37 10° SE daylight
04 Sep - 10:23:21 10° SW 10:26:34 47° SSE 10:29:47 10° ENE daylight
04 Sep - 11:59:57 10° W 12:03:17 65° N 12:06:37 10° ENE daylight
04 Sep - 13:36:53 10° WNW 13:40:14 70° NNE 13:43:34 10° E daylight
04 Sep - 15:13:44 10° W 15:16:53 39° SSW 15:20:01 10° SE daylight
05 Sep - 09:35:15 10° SSW 09:38:17 32° SSE 09:41:18 10° E daylight
05 Sep - 11:11:31 10° W 11:14:52 77° NNW 11:18:13 10° ENE daylight
05 Sep - 12:48:29 10° WNW 12:51:48 62° N 12:55:07 10° E daylight
05 Sep - 14:25:17 10° WNW 14:28:34 56° SSW 14:31:51 10° SE daylight
05 Sep - 16:03:13 10° WSW 16:04:45 13° SW 16:06:18 10° SSW daylight
